When you browse on this site, cookies collect data to enhance your experience and personalize the content and advertising you see.
Visit our Privacy Policy to learn more. By continuing to use the site, you agree to this use of cookies and data.
  • In United Kingdom
  • List of Countries
  • For 7 days
  • Water Temperature
  • Weather Map
  • Weather Widgets
  • user-avatar
    Login

    Hourly Weather Oshla

    Today, 19 August, Monday

    Time Temperature Precipitation Wind Pressure Humidity
    00:00 +19°C° 0 mm 2 mps 753 mmHg 80%
    01:00 +19°C° 0.3 mm 2 mps 753 mmHg 84%
    02:00 +19°C° 0.3 mm 2 mps 753 mmHg 88%
    03:00 +18°C° 0.3 mm 2 mps 753 mmHg 92%
    04:00 +18°C° 0.6 mm 3 mps 753 mmHg 93%
    05:00 +18°C° 0.6 mm 3 mps 753 mmHg 93%
    06:00 +18°C° 0.6 mm 3 mps 753 mmHg 94%
    07:00 +18°C° 1.6 mm 3 mps 753 mmHg 94%
    08:00 +18°C° 1.6 mm 2 mps 753 mmHg 95%
    09:00 +18°C° 1.6 mm 2 mps 753 mmHg 96%
    10:00 +18°C° 0.1 mm 2 mps 753 mmHg 94%
    11:00 +19°C° 0.1 mm 2 mps 753 mmHg 92%
    12:00 +20°C° 0.1 mm 2 mps 753 mmHg 90%
    13:00 +20°C° 0.3 mm 2 mps 753 mmHg 88%
    14:00 +21°C° 0.3 mm 2 mps 753 mmHg 87%
    15:00 +21°C° 0.3 mm 2 mps 753 mmHg 85%
    16:00 +21°C° 0.3 mm 2 mps 753 mmHg 87%
    17:00 +21°C° 0.3 mm 2 mps 753 mmHg 88%
    18:00 +22°C° 0.3 mm 1 mps 753 mmHg 90%
    19:00 +20°C° 0 mm 2 mps 753 mmHg 92%
    20:00 +19°C° 0 mm 2 mps 753 mmHg 94%
    21:00 +18°C° 0 mm 2 mps 753 mmHg 96%
    22:00 +18°C° 0 mm 2 mps 753 mmHg 96%
    23:00 +17°C° 0 mm 2 mps 753 mmHg 96%

    Tomorrow, 20 August, Tuesday

    Time Temperature Precipitation Wind Pressure Humidity
    00:00 +17°C° 0 mm 2 mps 754 mmHg 96%
    01:00 +16°C° 0 mm 2 mps 754 mmHg 96%
    02:00 +16°C° 0 mm 2 mps 754 mmHg 97%
    03:00 +15°C° 0 mm 2 mps 754 mmHg 97%
    04:00 +15°C° 0 mm 2 mps 755 mmHg 97%
    05:00 +16°C° 0 mm 2 mps 755 mmHg 97%
    06:00 +16°C° 0 mm 2 mps 755 mmHg 97%
    07:00 +17°C° 0 mm 2 mps 755 mmHg 94%
    08:00 +19°C° 0 mm 2 mps 755 mmHg 90%
    09:00 +20°C° 0 mm 3 mps 756 mmHg 86%
    10:00 +22°C° 0 mm 3 mps 756 mmHg 79%
    11:00 +24°C° 0 mm 3 mps 756 mmHg 72%
    12:00 +25°C° 0 mm 4 mps 756 mmHg 65%
    13:00 +25°C° 0 mm 4 mps 756 mmHg 65%
    14:00 +26°C° 0 mm 3 mps 756 mmHg 64%
    15:00 +26°C° 0 mm 3 mps 756 mmHg 64%
    16:00 +25°C° 0 mm 3 mps 756 mmHg 69%
    17:00 +24°C° 0 mm 2 mps 756 mmHg 74%
    18:00 +23°C° 0 mm 2 mps 756 mmHg 79%
    19:00 +22°C° 0 mm 1 mps 756 mmHg 84%
    20:00 +21°C° 0 mm 1 mps 756 mmHg 88%
    21:00 +19°C° 0 mm 1 mps 756 mmHg 92%
    22:00 +19°C° 0 mm 1 mps 756 mmHg 93%
    23:00 +18°C° 0 mm 1 mps 757 mmHg 93%

    Day after tomorrow, 21 August, Wednesday

    Time Temperature Precipitation Wind Pressure Humidity
    00:00 +18°C° 0 mm 1 mps 757 mmHg 94%
    01:00 +18°C° 0 mm 1 mps 757 mmHg 95%
    02:00 +18°C° 0 mm 1 mps 757 mmHg 95%
    03:00 +16°C° 0 mm 1 mps 757 mmHg 95%
    04:00 +18°C° 0 mm 1 mps 757 mmHg 94%
    05:00 +18°C° 0 mm 1 mps 757 mmHg 93%
    06:00 +19°C° 0 mm 1 mps 757 mmHg 92%
    07:00 +21°C° 0 mm 1 mps 757 mmHg 85%
    08:00 +22°C° 0 mm 1 mps 758 mmHg 79%
    09:00 +24°C° 0 mm 1 mps 758 mmHg 72%
    10:00 +25°C° 0 mm 1 mps 758 mmHg 69%
    11:00 +26°C° 0 mm 1 mps 758 mmHg 65%
    12:00 +27°C° 0 mm 2 mps 757 mmHg 61%
    13:00 +27°C° 0 mm 2 mps 757 mmHg 61%
    14:00 +28°C° 0 mm 2 mps 757 mmHg 62%
    15:00 +28°C° 0 mm 2 mps 757 mmHg 62%
    16:00 +27°C° 0.3 mm 2 mps 757 mmHg 70%
    17:00 +26°C° 0.3 mm 1 mps 757 mmHg 78%
    18:00 +24°C° 0.3 mm 1 mps 757 mmHg 85%
    19:00 +23°C° 0 mm 1 mps 757 mmHg 88%
    20:00 +22°C° 0 mm 1 mps 757 mmHg 91%
    21:00 +21°C° 0 mm 1 mps 757 mmHg 94%
    22:00 +21°C° 0 mm 1 mps 757 mmHg 94%
    23:00 +20°C° 0 mm 1 mps 757 mmHg 95%

    22 August, Thursday

    Time Temperature Precipitation Wind Pressure Humidity
    00:00 +20°C° 0 mm 1 mps 757 mmHg 96%
    01:00 +19°C° 0 mm 1 mps 757 mmHg 95%
    02:00 +19°C° 0 mm 1 mps 757 mmHg 95%
    03:00 +19°C° 0 mm 1 mps 758 mmHg 95%
    04:00 +19°C° 0 mm 1 mps 757 mmHg 94%
    05:00 +19°C° 0 mm 1 mps 757 mmHg 94%
    06:00 +18°C° 0 mm 0 mps 757 mmHg 93%
    07:00 +19°C° 0 mm 0 mps 757 mmHg 87%
    08:00 +21°C° 0 mm 0 mps 757 mmHg 82%
    09:00 +23°C° 0 mm 0 mps 757 mmHg 76%
    10:00 +24°C° 0 mm 0 mps 757 mmHg 70%
    11:00 +25°C° 0 mm 0 mps 757 mmHg 64%
    12:00 +29°C° 0 mm 1 mps 756 mmHg 58%
    13:00 +29°C° 0 mm 1 mps 756 mmHg 58%
    14:00 +29°C° 0 mm 1 mps 756 mmHg 58%
    15:00 +29°C° 0 mm 2 mps 756 mmHg 57%
    16:00 +28°C° 0.4 mm 2 mps 755 mmHg 66%
    17:00 +26°C° 0.4 mm 2 mps 755 mmHg 74%
    18:00 +25°C° 0.4 mm 2 mps 754 mmHg 82%
    19:00 +24°C° 1.2 mm 2 mps 754 mmHg 86%
    20:00 +23°C° 1.2 mm 2 mps 754 mmHg 89%
    21:00 +20°C° 1.2 mm 2 mps 754 mmHg 93%
    22:00 +20°C° 0 mm 2 mps 754 mmHg 94%
    23:00 +20°C° 0 mm 2 mps 754 mmHg 95%

    23 August, Friday

    Time Temperature Precipitation Wind Pressure Humidity
    00:00 +19°C° 0 mm 2 mps 754 mmHg 96%
    01:00 +19°C° 0 mm 2 mps 754 mmHg 97%
    02:00 +18°C° 0 mm 2 mps 754 mmHg 97%
    03:00 +17°C° 0 mm 2 mps 754 mmHg 98%
    04:00 +18°C° 0 mm 2 mps 754 mmHg 98%
    05:00 +18°C° 0 mm 2 mps 754 mmHg 97%
    06:00 +18°C° 0 mm 2 mps 754 mmHg 96%
    07:00 +18°C° 0 mm 2 mps 754 mmHg 95%
    08:00 +18°C° 0 mm 3 mps 755 mmHg 94%
    09:00 +18°C° 0 mm 3 mps 755 mmHg 92%
    10:00 +19°C° 0 mm 3 mps 755 mmHg 89%
    11:00 +19°C° 0 mm 3 mps 755 mmHg 85%
    12:00 +20°C° 0 mm 3 mps 755 mmHg 82%
    13:00 +20°C° 0 mm 2 mps 755 mmHg 79%
    14:00 +21°C° 0 mm 2 mps 755 mmHg 77%
    15:00 +21°C° 0 mm 2 mps 755 mmHg 74%
    16:00 +21°C° 0 mm 2 mps 755 mmHg 76%
    17:00 +21°C° 0 mm 1 mps 755 mmHg 78%
    18:00 +21°C° 0 mm 1 mps 755 mmHg 79%
    19:00 +20°C° 0 mm 1 mps 755 mmHg 82%
    20:00 +19°C° 0 mm 1 mps 755 mmHg 84%
    21:00 +16°C° 0 mm 1 mps 755 mmHg 86%
    22:00 +18°C° 0 mm 1 mps 754 mmHg 85%
    23:00 +18°C° 0 mm 1 mps 754 mmHg 83%

    24 August, Saturday

    Time Temperature Precipitation Wind Pressure Humidity
    00:00 +18°C° 0 mm 1 mps 754 mmHg 81%
    01:00 +17°C° 0 mm 2 mps 754 mmHg 82%
    02:00 +16°C° 0 mm 2 mps 754 mmHg 83%
    03:00 +16°C° 0 mm 2 mps 753 mmHg 83%
    04:00 +16°C° 0.1 mm 2 mps 753 mmHg 84%
    05:00 +16°C° 0.1 mm 2 mps 753 mmHg 85%
    06:00 +16°C° 0.1 mm 2 mps 753 mmHg 87%
    07:00 +16°C° 0.5 mm 2 mps 753 mmHg 87%
    08:00 +17°C° 0.5 mm 2 mps 753 mmHg 87%
    09:00 +17°C° 0.5 mm 3 mps 753 mmHg 87%
    10:00 +17°C° 0.6 mm 3 mps 753 mmHg 86%
    11:00 +18°C° 0.6 mm 3 mps 752 mmHg 86%
    12:00 +18°C° 0.6 mm 3 mps 752 mmHg 85%
    13:00 +18°C° 0.7 mm 3 mps 752 mmHg 85%
    14:00 +18°C° 0.7 mm 2 mps 752 mmHg 85%
    15:00 +18°C° 0.7 mm 2 mps 752 mmHg 85%
    16:00 +17°C° 0.3 mm 2 mps 753 mmHg 86%
    17:00 +17°C° 0.3 mm 3 mps 753 mmHg 86%
    18:00 +17°C° 0.3 mm 4 mps 753 mmHg 86%
    19:00 +15°C° 0 mm 4 mps 753 mmHg 86%
    20:00 +14°C° 0 mm 4 mps 753 mmHg 86%
    21:00 +14°C° 0 mm 4 mps 753 mmHg 86%
    22:00 +13°C° 0 mm 5 mps 753 mmHg 85%
    23:00 +13°C° 0 mm 5 mps 753 mmHg 84%
    Show more